Amsterdam, Netherlands

2:46 AM CEST on September 22, 2019 (GMT +0200)
Schiphol

Weather History for EHAM - August, 2019

Change the Weather History Date:

Sunday, August 25, 2019

  Actual Average Record
Temperature  
Mean Temperature 72 °F -  
Max Temperature 88 °F 65 °F 87 °F (2001)
Min Temperature 56 °F 52 °F 50 °F (2014)
Cooling Degree Days 7    
Growing Degree Days 22 (Base 50)    
Moisture  
Dew Point 57 °F    
Average Humidity 60    
Maximum Humidity 94    
Minimum Humidity 20    
Precipitation  
Precipitation 0.00 in - - ()
Sea Level Pressure  
Sea Level Pressure 30.08 in    
Wind  
Wind Speed 3 mph ()    
Max Wind Speed 9 mph    
Max Gust Speed -    
Visibility 13.7 miles    
Events Fog    
Averages and records for this station are not official NWS values.
T = Trace of Precipitation, MM = Missing Value Source: Averaged Metar Reports

Daily Weather History Graph

Daily Weather History Graph

Search for Another Location

Airport or City:

Astronomy

Aug. 25, 2019 Rise Set
Actual Time 6:39 AM CEST 8:45 PM CEST
Civil Twilight 6:03 AM CEST 9:21 PM CEST
Nautical Twilight 5:17 AM CEST 10:07 PM CEST
Astronomical Twilight 4:24 AM CEST 10:59 PM CEST
Moon 12:41 AM CEST (8/25) 5:15 PM CEST (8/25)
Length of Visible Light 15h 18m
Length of Day
14h 05m
Waning Crescent, 32% of the Moon is Illuminated
Aug 25
Waning Crescent
Aug 30
New
Sep 6
First Quarter
Sep 14
Full
Sep 22
Last Quarter

Hourly Weather History & Observations

Time (CEST) Temp. Heat Index Dew Point Humidity Pressure Visibility Wind Dir Wind Speed Gust Speed Precip Events Conditions
12:00 AM 65 °F - 59 °F 74% 30.09 in 19 mi NE 2.2 mph - -   Partly Cloudy
12:25 AM 64.4 °F - 59.0 °F 83% 30.06 in - NE 2.3 mph - N/A   Clear
12:55 AM 64.4 °F - 57.2 °F 77% 30.06 in - NE 2.3 mph - N/A   Clear
1:00 AM 64 °F - 58 °F 75% 30.09 in 22 mi NNE 2.2 mph - -   Partly Cloudy
1:25 AM 64.4 °F - 59.0 °F 83% 30.06 in - ENE 4.6 mph - N/A   Clear
2:00 AM 66 °F - 58 °F 68% 30.08 in 19 mi NE 2.2 mph - -   Partly Cloudy
2:25 AM 64.4 °F - 57.2 °F 77% 30.06 in - NE 2.3 mph - N/A   Clear
2:55 AM 62.6 °F - 57.2 °F 82% 30.06 in - NE 3.5 mph - N/A   Clear
3:25 AM 62.6 °F - 57.2 °F 82% 30.06 in - NE 2.3 mph - N/A   Clear
3:55 AM 62.6 °F - 57.2 °F 82% 30.06 in - NE 2.3 mph - N/A   Clear
4:25 AM 60.8 °F - 57.2 °F 88% 30.06 in - NE 1.2 mph - N/A   Clear
4:55 AM 60.8 °F - 57.2 °F 88% 30.06 in - Variable 1.2 mph - N/A   Clear
5:00 AM 60 °F - 56 °F 84% 30.08 in 16 mi North 2.2 mph - -   Partly Cloudy
5:25 AM 59.0 °F - 55.4 °F 88% 30.06 in - NNW 1.2 mph - N/A   Clear
5:55 AM 59.0 °F - 57.2 °F 94% 30.06 in - Variable 1.2 mph - N/A   Clear
6:00 AM 58 °F - 56 °F 90% 30.07 in 13 mi NE 2.2 mph - -   Partly Cloudy
6:25 AM 57.2 °F - 55.4 °F 94% 30.06 in 6.2 mi NE 2.3 mph - N/A Fog Shallow Fog
6:55 AM 60.8 °F - 59.0 °F 94% 30.06 in 6.2 mi ENE 1.2 mph - N/A Fog Shallow Fog
7:00 AM 60 °F - 58 °F 91% 30.08 in 15 mi ENE 2.2 mph - -   Partly Cloudy
7:25 AM 59.0 °F - 57.2 °F 94% 30.06 in 6.2 mi Variable 2.3 mph - N/A Fog Shallow Fog
7:55 AM 62.6 °F - 59.0 °F 88% 30.06 in - Variable 3.5 mph - N/A   Clear
8:00 AM 64 °F - 61 °F 85% 30.08 in 11 mi ENE 4.5 mph - -   Partly Cloudy
8:25 AM 66.2 °F - 60.8 °F 83% 30.06 in - East 3.5 mph - N/A   Clear
8:55 AM 69.8 °F - 60.8 °F 73% 30.06 in - East 3.5 mph - N/A   Clear
9:00 AM 70 °F - 59 °F 59% 30.10 in 16 mi East 2.2 mph - -   Partly Cloudy
9:25 AM 71.6 °F - 59.0 °F 64% 30.09 in - East 3.5 mph - N/A   Clear
9:55 AM 73.4 °F - 59.0 °F 61% 30.09 in - East 4.6 mph - N/A   Clear
10:00 AM 74 °F - 59 °F 49% 30.11 in 16 mi East 4.5 mph - -   Partly Cloudy
10:25 AM 77.0 °F - 59.0 °F 54% 30.09 in - Variable 2.3 mph - N/A   Clear
10:55 AM 78.8 °F - 59.0 °F 51% 30.09 in - East 3.5 mph - N/A   Clear
11:00 AM 79 °F - 58 °F 38% 30.11 in 15 mi East 4.5 mph - -   Partly Cloudy
11:25 AM 80.6 °F 81.1 °F 59.0 °F 48% 30.09 in - East 3.5 mph - N/A   Clear
11:55 AM 82.4 °F 82.0 °F 57.2 °F 42% 30.09 in - East 4.6 mph - N/A   Clear
12:00 PM 82 °F - 56 °F 30% 30.10 in 19 mi East 4.5 mph - -   Overcast
12:25 PM 82.4 °F 81.4 °F 53.6 °F 37% 30.09 in - East 4.6 mph - N/A   Clear
12:55 PM 84.2 °F 82.8 °F 53.6 °F 35% 30.09 in - East 6.9 mph - N/A   Clear
1:25 PM 86.0 °F 84.5 °F 55.4 °F 35% 30.09 in - ESE 6.9 mph - N/A   Clear
1:55 PM 86.0 °F 84.5 °F 55.4 °F 35% 30.09 in - SE 6.9 mph - N/A   Clear
2:25 PM 86.0 °F - 50.0 °F 29% 30.06 in - SE 5.8 mph - N/A   Clear
2:55 PM 86.0 °F - 50.0 °F 29% 30.09 in - SSE 6.9 mph - N/A   Clear
3:25 PM 86.0 °F 84.2 °F 53.6 °F 33% 30.06 in - East 5.8 mph - N/A   Clear
4:00 PM 86 °F - 51 °F 20% 30.09 in 22 mi SSE 4.5 mph - -   Mostly Cloudy
4:55 PM 87.8 °F 85.7 °F 53.6 °F 31% 30.06 in - SE 4.6 mph - N/A   Clear
5:00 PM 87 °F - 54 °F 22% 30.09 in 22 mi East 2.2 mph - -   Partly Cloudy
5:25 PM 86.0 °F 84.9 °F 57.2 °F 37% 30.06 in - Variable 2.3 mph - N/A   Clear
5:55 PM 86.0 °F 84.2 °F 53.6 °F 33% 30.06 in - East 5.8 mph - N/A   Clear
6:00 PM 86 °F - 53 °F 22% 30.09 in 22 mi ESE 4.5 mph - -   Partly Cloudy
6:25 PM 84.2 °F 83.5 °F 57.2 °F 40% 30.06 in - East 4.6 mph - N/A   Clear
6:55 PM 82.4 °F 82.0 °F 57.2 °F 42% 30.06 in - ENE 6.9 mph - N/A   Clear
7:00 PM 82 °F - 59 °F 35% 30.09 in 25 mi ENE 6.7 mph - -   Partly Cloudy
7:25 PM 78.8 °F - 57.2 °F 47% 30.06 in - ENE 9.2 mph - N/A   Clear
7:55 PM 77.0 °F - 55.4 °F 47% 30.09 in - ENE 9.2 mph - N/A   Clear
8:00 PM 76 °F - 56 °F 40% 30.10 in 25 mi ENE 8.9 mph - -   Partly Cloudy
8:25 PM 75.2 °F - 57.2 °F 53% 30.09 in - NE 5.8 mph - N/A   Clear
8:55 PM 75.2 °F - 57.2 °F 53% 30.09 in - NE 3.5 mph - N/A   Clear
9:00 PM 75 °F - 57 °F 44% 30.11 in 28 mi NE 4.5 mph - -  
9:25 PM 73.4 °F - 59.0 °F 61% 30.09 in - NE 3.5 mph - N/A   Clear
9:55 PM 71.6 °F - 59.0 °F 64% 30.12 in - Variable 2.3 mph - N/A   Clear
10:00 PM 70 °F - 59 °F 60% 30.13 in 22 mi NNE 4.5 mph - -   Partly Cloudy
10:25 PM 69.8 °F - 57.2 °F 64% 30.12 in - NNE 3.5 mph - N/A   Clear
10:55 PM 69.8 °F - 59.0 °F 68% 30.12 in - NE 2.3 mph - N/A   Clear
11:25 PM 68.0 °F - 60.8 °F 78% 30.12 in - NE 4.6 mph - N/A   Clear
11:55 PM 68.0 °F - 60.8 °F 78% 30.12 in - NE 4.6 mph - N/A   Clear